Seretse Khama, Botswana

4:14 PM CAT on May 29, 2017 (GMT +0200)
Seretse Khama

Weather History for FBSK - February, 2013

Change the Weather History Date:

Friday, February 1, 2013

  Actual Average Record
Temperature  
Mean Temperature 78 °F -  
Max Temperature 86 °F 86 °F 95 °F (2004)
Min Temperature 71 °F 65 °F 42 °F (2004)
Cooling Degree Days 14    
Growing Degree Days 28 (Base 50)    
Moisture  
Dew Point 64 °F    
Average Humidity 63    
Maximum Humidity 78    
Minimum Humidity 48    
Precipitation  
Precipitation 0.00 in - - ()
Sea Level Pressure  
Sea Level Pressure 29.99 in    
Wind  
Wind Speed 7 mph ()    
Max Wind Speed 13 mph    
Max Gust Speed 34 mph    
Visibility 6.2 miles    
Events      
Averages and records for this station are not official NWS values.
T = Trace of Precipitation, MM = Missing Value Source: Averaged Metar Reports

Daily Weather History Graph

Daily Weather History Graph

Search for Another Location

Airport or City:

Trip Planner

Search our weather history database for the weather conditions in past years. The results will help you decide how hot, cold, wet, or windy it might be!

Date:

Astronomy

Feb. 01, 2013 Rise Set
Actual Time 5:53 AM CAT 7:05 PM CAT
Civil Twilight 5:29 AM CAT 7:30 PM CAT
Nautical Twilight 5:00 AM CAT 7:58 PM CAT
Astronomical Twilight 4:30 AM CAT 8:28 PM CAT
Moon 10:22 PM CAT (2/1) 10:33 AM CAT (2/1)
Length of Visible Light 14h 00m
Length of Day
13h 12m
Waning Gibbous, 73% of the Moon is Illuminated
Feb 1
Waning Gibbous
Feb 3
Last Quarter
Feb 10
New
Feb 17
First Quarter
Feb 25
Full

Hourly Weather History & Observations

Time (CAT) Temp. Heat Index Dew Point Humidity Pressure Visibility Wind Dir Wind Speed Gust Speed Precip Events Conditions
12:00 AM 77.0 °F - 62.6 °F 61% 29.95 in - ENE 4.6 mph - N/A   Clear
1:00 AM 77.0 °F - 62.6 °F 61% 29.95 in - East 4.6 mph - N/A   Clear
2:00 AM 73.4 °F - 60.8 °F 65% 29.98 in - SE 5.8 mph - N/A   Clear
3:00 AM 73.4 °F - 62.6 °F 69% 29.98 in - ESE 6.9 mph - N/A   Clear
5:00 AM 73.4 °F - 62.6 °F 69% 30.01 in - East 8.1 mph - N/A   Clear
6:00 AM 71.6 °F - 62.6 °F 73% 30.04 in - ENE 8.1 mph - N/A   Clear
7:00 AM 73.4 °F - 62.6 °F 69% 30.06 in - East 9.2 mph - N/A   Clear
8:00 AM 77.0 °F - 64.4 °F 65% 30.06 in 6.2 mi NE 10.4 mph 34.5 mph N/A   Partly Cloudy
9:00 AM 77.0 °F - 66.2 °F 69% 30.06 in 6.2 mi NE 12.7 mph - N/A   Mostly Cloudy
10:00 AM 78.8 °F - 66.2 °F 65% 30.06 in 6.2 mi NE 11.5 mph - N/A   Mostly Cloudy
11:00 AM 80.6 °F 82.7 °F 66.2 °F 61% 30.04 in 6.2 mi ENE 10.4 mph - N/A   Mostly Cloudy
1:00 PM 86.0 °F 88.2 °F 66.2 °F 51% 30.01 in 6.2 mi ENE 11.5 mph - N/A   Scattered Clouds
2:00 PM 86.0 °F 87.3 °F 64.4 °F 48% 29.98 in 6.2 mi East 12.7 mph - N/A   Scattered Clouds
3:00 PM 86.0 °F 87.3 °F 64.4 °F 48% 29.95 in 6.2 mi East 12.7 mph - N/A   Scattered Clouds
4:00 PM 84.2 °F 85.6 °F 64.4 °F 51% 29.92 in 6.2 mi ENE 12.7 mph - N/A   Scattered Clouds
5:00 PM 82.4 °F 83.9 °F 64.4 °F 54% 29.92 in 6.2 mi NNE 11.5 mph - N/A   Partly Cloudy
6:00 PM 80.6 °F 82.3 °F 64.4 °F 58% 29.95 in 6.2 mi North 9.2 mph - N/A   Partly Cloudy
7:00 PM 80.6 °F 82.3 °F 64.4 °F 58% 29.95 in 6.2 mi NE 6.9 mph - N/A   Partly Cloudy
8:00 PM 73.4 °F - 66.2 °F 78% 29.95 in 6.2 mi North 3.5 mph - N/A   Scattered Clouds
9:00 PM 75.2 °F - 66.2 °F 73% 29.98 in - NNE 4.6 mph - N/A   Clear
10:00 PM 75.2 °F - 66.2 °F 73% 29.98 in - Variable 2.3 mph - N/A   Clear
11:00 PM 73.4 °F - 66.2 °F 78% 29.98 in - East 4.6 mph - N/A   Clear